Doylestown, PA

10:10 AM EDT on March 25, 2017 (GMT -0400)
Doylestown

Weather History for KDYL - October, 2013

Change the Weather History Date:

Wednesday, October 23, 2013

  Actual Average (KTTN) Record (KTTN)
Temperature  
Mean Temperature 47 °F -  
Max Temperature 55 °F 59 °F 85 °F (1947)
Min Temperature 39 °F 40 °F 30 °F (1997)
Degree Days  
Heating Degree Days 18    
Moisture  
Dew Point 35 °F    
Average Humidity 66    
Maximum Humidity 79    
Minimum Humidity 56    
Precipitation  
Precipitation 0.00 in - - ()
Sea Level Pressure  
Sea Level Pressure 29.74 in    
Wind  
Wind Speed 3 mph (NNW)    
Max Wind Speed 9 mph    
Max Gust Speed 20 mph    
Visibility 10 miles    
Events      
Averages and records for this station are not official NWS values.
T = Trace of Precipitation, MM = Missing Value Source: NWS Daily Summary

Daily Weather History Graph

Daily Weather History Graph

Search for Another Location

Airport or City:

Trip Planner

Search our weather history database for the weather conditions in past years. The results will help you decide how hot, cold, wet, or windy it might be!

Date:

Astronomy

Oct. 23, 2013 Rise Set
Actual Time 7:20 AM EDT 6:08 PM EDT
Civil Twilight 6:52 AM EDT 6:36 PM EDT
Nautical Twilight 6:20 AM EDT 7:08 PM EDT
Astronomical Twilight 5:49 AM EDT 7:39 PM EDT
Moon 9:37 PM EDT (10/23) 11:35 AM EDT (10/23)
Length of Visible Light 11h 44m
Length of Day
10h 48m
Waning Gibbous, 79% of the Moon is Illuminated
Oct 23
Waning Gibbous
Oct 26
Last Quarter
Nov 3
New
Nov 10
First Quarter
Nov 17
Full

Hourly Weather History & Observations

Time (EDT) Temp. Windchill Dew Point Humidity Pressure Visibility Wind Dir Wind Speed Gust Speed Precip Events Conditions
12:54 AM 43.0 °F - 32.0 °F 65% 29.82 in 10.0 mi Calm Calm - N/A   Scattered Clouds
1:54 AM 42.1 °F 40.2 °F 32.0 °F 67% 29.82 in 10.0 mi NNE 3.5 mph - N/A   Partly Cloudy
2:54 AM 42.1 °F - 34.0 °F 73% 29.81 in 10.0 mi Calm Calm - N/A   Mostly Cloudy
3:54 AM 42.1 °F 40.2 °F 36.0 °F 79% 29.79 in 10.0 mi NE 3.5 mph - N/A   Overcast
4:54 AM 42.1 °F - 34.0 °F 73% 29.77 in 10.0 mi Calm Calm - N/A   Scattered Clouds
5:54 AM 42.1 °F - 36.0 °F 79% 29.79 in 10.0 mi Calm Calm - N/A   Mostly Cloudy
6:54 AM 42.1 °F - 34.0 °F 73% 29.77 in 10.0 mi Calm Calm - N/A   Partly Cloudy
7:54 AM 42.1 °F - 35.1 °F 76% 29.78 in 10.0 mi Calm Calm - N/A   Overcast
10:54 AM 51.1 °F - 36.0 °F 56% 29.71 in 10.0 mi NNE 9.2 mph - N/A   Clear
11:54 AM 51.1 °F - 36.0 °F 56% 29.70 in 10.0 mi NNE 8.1 mph - N/A   Mostly Cloudy
12:54 PM 53.1 °F - 39.0 °F 59% 29.66 in 10.0 mi North 4.6 mph - N/A   Mostly Cloudy
1:54 PM 53.1 °F - 39.0 °F 59% 29.65 in 10.0 mi Calm Calm - N/A   Mostly Cloudy
2:54 PM 53.1 °F - 37.9 °F 57% 29.63 in 10.0 mi NNW 9.2 mph - N/A   Overcast
3:54 PM 50.0 °F - 36.0 °F 59% 29.65 in 10.0 mi NNW 8.1 mph 19.6 mph N/A   Overcast
4:54 PM 48.9 °F - - N/A% 29.67 in 10.0 mi NW 8.1 mph 16.1 mph N/A   Overcast
5:54 PM 48.9 °F - - N/A% 29.69 in 10.0 mi NNW 5.8 mph - N/A   Overcast
6:54 PM 46.9 °F - - N/A% 29.72 in 10.0 mi NW 6.9 mph - N/A   Mostly Cloudy
7:54 PM 45.0 °F 41.8 °F - N/A% 29.74 in 10.0 mi NW 5.8 mph - N/A   Clear
8:54 PM 44.1 °F 40.8 °F - N/A% 29.76 in 10.0 mi WNW 5.8 mph - N/A   Mostly Cloudy
9:54 PM 42.1 °F 39.2 °F - N/A% 29.78 in 10.0 mi West 4.6 mph - N/A   Clear
10:54 PM 41.0 °F 38.0 °F - N/A% 29.80 in 10.0 mi West 4.6 mph - N/A   Clear
11:54 PM 39.9 °F - - N/A% 29.81 in 10.0 mi Calm Calm - N/A   Clear